Weather reports worldwide

Advertisment
Waibstadt, Germany (10733): temperature & dewpoint: 10.09.2019 05:00:00 - 16.09.2019 05:00:00 (CEST)Waibstadt, Germany (10733): temperature 5cm & temperature -5cm: 10.09.2019 05:00:00 - 16.09.2019 05:00:00 (CEST)Waibstadt, Germany (10733): temperature -20cm & temperature -100cm: 10.09.2019 05:00:00 - 16.09.2019 05:00:00 (CEST)Waibstadt, Germany (10733): wind speed & gusts: 10.09.2019 05:00:00 - 16.09.2019 05:00:00 (CEST)Waibstadt, Germany (10733): wind direction: 10.09.2019 05:00:00 - 16.09.2019 05:00:00 (CEST)Waibstadt, Germany (10733): reduced air pressure: 10.09.2019 05:00:00 - 16.09.2019 05:00:00 (CEST)Waibstadt, Germany (10733): visibility: 10.09.2019 05:00:00 - 16.09.2019 05:00:00 (CEST)Waibstadt, Germany (10733): sunshine duration: 10.09.2019 05:00:00 - 16.09.2019 05:00:00 (CEST)Waibstadt, Germany (10733): precipitation: 10.09.2019 05:00:00 - 16.09.2019 05:00:00 (CEST)
Date & Time tt [°C] td [°C] tt 5cm [°C] tt -5cm [°C] tt -20cm [°C] tt -100cm [°C] ff [km/h] ff [kn] fx [km/h] fx [kn] dd ppp [hPa] vv [km] sd [min] rr [mm]
16.09.2019 05:00:00 10,9 10,5 8,9 14,5 18,4 18,3 3 2 6 4 E 1021,6 11 0 0,0
16.09.2019 04:00:00 11,5 11,0 9,1 15,0 18,8 18,3 3 2 5 3 ESE 1021,9 10 0 0,0
16.09.2019 03:00:00 12,4 12,0 10,2 15,5 19,1 18,3 3 2 7 4 NNE 1021,9 16 0 0,0
16.09.2019 02:00:00 13,3 12,5 10,6 16,1 19,5 18,3 4 2 7 4 SE 1021,6 24 0 0,0
16.09.2019 01:00:00 13,5 12,5 11,0 16,9 19,8 18,3 4 2 6 4 E 1021,9 28 0 0,0
16.09.2019 00:00:00 15,0 13,5 11,5 17,7 20,2 18,3 2 1 4 2 NNE 1021,9 40 0 0,0
15.09.2019 23:00:00 16,5 13,7 12,6 18,5 20,5 18,3 3 2 5 3 ENE 1021,7 44 0 0,0
15.09.2019 22:00:00 18,0 14,0 13,9 19,5 20,8 18,3 3 2 4 2 NNE 1021,4 57 0 0,0
15.09.2019 21:00:00 20,4 13,6 15,1 20,6 21,1 18,3 3 2 5 3 ESE 1020,9 70 0 0,0
15.09.2019 20:00:00 22,4 14,0 17,1 22,0 21,2 18,3 3 2 5 3 NE 1020,5 61 11 0,0
15.09.2019 19:00:00 24,0 13,3 20,5 23,5 21,2 18,3 4 2 13 7 WSW 1020,2 52 60 0,0
15.09.2019 18:00:00 25,4 12,8 25,3 24,6 21,0 18,3 8 4 18 10 W 1020,6 60 60 0,0
15.09.2019 17:00:00 25,3 12,2 29,5 25,5 20,6 18,3 8 4 19 10 NW 1021,2 67 60 0,0
15.09.2019 16:00:00 25,5 11,6 30,7 26,2 20,1 18,3 9 5 26 14 WNW 1021,7 68 60 0,0
15.09.2019 15:00:00 25,2 13,5 31,2 26,7 19,4 18,3 13 7 25 13 W 1022,2 54 60 0,0
15.09.2019 14:00:00 24,3 13,5 30,5 26,5 18,7 18,3 10 5 19 10 WSW 1022,9 75 60 0,0
15.09.2019 13:00:00 23,0 13,7 29,7 25,5 18,1 18,3 9 5 18 10 W 1023,7 64 60 0,0
15.09.2019 12:00:00 21,9 13,7 27,7 23,8 17,5 18,3 9 5 16 8 WSW 1024,2 35 60 0,0
15.09.2019 11:00:00 19,4 12,6 25,7 21,2 17,1 18,3 4 2 8 4 WSW 1024,8 46 60 0,0
15.09.2019 10:00:00 17,3 12,0 21,5 18,0 17,0 18,3 4 2 6 4 E 1025,2 49 60 0,0
15.09.2019 09:00:00 13,4 10,2 16,2 15,0 17,1 18,3 3 1 5 3 ENE 1025,7 46 60 0,0
15.09.2019 08:00:00 11,4 10,1 11,8 13,6 17,3 18,2 3 2 5 3 E 1025,7 23 9 0,0
15.09.2019 07:00:00 10,5 9,8 8,7 13,6 17,6 18,2 4 2 6 4 E 1025,8 24 0 0,0
15.09.2019 06:00:00 10,6 10,0 8,8 14,0 17,9 18,2 4 2 8 4 ESE 1025,7 18 0 0,0
15.09.2019 05:00:00 11,0 10,3 9,2 14,4 18,2 18,2 6 3 9 5 E 1026,0 24 0 0,0
15.09.2019 04:00:00 11,4 10,5 9,9 14,8 18,5 18,2 5 3 6 3 ESE 1026,5 26 0 0,0
15.09.2019 03:00:00 12,1 10,9 10,0 15,3 18,8 18,3 4 2 5 3 E 1026,7 33 0 0,0
15.09.2019 02:00:00 12,9 11,2 10,7 15,8 19,1 18,3 4 2 8 4 ENE 1027,0 33 0 0,0
15.09.2019 01:00:00 13,5 11,5 11,0 16,4 19,5 18,3 5 3 9 5 E 1027,2 32 0 0,0
15.09.2019 00:00:00 14,3 11,9 11,3 17,1 19,8 18,3 5 3 8 4 E 1027,7 15 0 0,0
14.09.2019 23:00:00 15,3 12,0 11,9 17,9 20,2 18,3 4 2 6 3 E 1028,1 61 0 0,0
14.09.2019 22:00:00 16,7 12,2 12,8 18,8 20,5 18,3 4 2 9 5 E 1028,2 54 0 0,0
14.09.2019 21:00:00 18,3 12,1 14,7 19,9 20,8 18,3 5 3 7 4 E 1028,1 66 0 0,0
14.09.2019 20:00:00 19,5 11,7 15,4 21,3 21,0 18,3 3 2 13 7 SSE 1027,6 63 14 0,0
14.09.2019 19:00:00 22,2 11,0 20,4 22,7 20,9 18,3 8 5 16 9 ENE 1027,5 70 60 0,0
14.09.2019 18:00:00 23,2 11,0 24,2 24,0 20,8 18,3 9 5 16 9 NE 1027,5 75 60 0,0
14.09.2019 17:00:00 23,5 10,7 28,4 24,9 20,4 18,3 9 5 21 12 N 1027,8 62 52 0,0
14.09.2019 16:00:00 23,0 11,7 25,9 25,8 19,9 18,3 10 6 22 12 E 1028,4 56 55 0,0
14.09.2019 15:00:00 23,5 10,5 30,7 26,2 19,3 18,3 8 5 18 10 E 1029,1 52 57 0,0
14.09.2019 14:00:00 22,3 11,4 31,2 25,8 18,7 18,3 6 3 17 9 ENE 1029,8 48 60 0,0
14.09.2019 13:00:00 21,6 11,9 30,0 24,6 18,1 18,3 6 4 15 8 ENE 1030,4 46 60 0,0
14.09.2019 12:00:00 20,3 12,3 26,6 22,7 17,6 18,3 8 5 18 10 ENE 1030,9 1,7 60 0,0
14.09.2019 11:00:00 18,3 11,4 23,7 20,6 17,3 18,3 10 6 23 12 E 1031,4 64 60 0,0
14.09.2019 10:00:00 17,5 11,9 22,4 18,5 17,2 18,3 15 8 29 15 ENE 1032,0 59 60 0,0
14.09.2019 09:00:00 16,0 12,2 17,7 15,9 17,3 18,3 6 4 14 8 E 1032,4 53 58 0,0
14.09.2019 08:00:00 13,9 12,2 13,1 14,6 17,5 18,3 9 5 13 7 E 1032,2 44 7 0,0
14.09.2019 07:00:00 13,3 12,4 11,4 14,8 17,6 18,3 6 4 8 5 E 1031,7 30 0 0,0
14.09.2019 06:00:00 13,7 12,7 11,6 15,4 17,8 18,3 5 3 6 4 N 1031,9 29 0 0,0
14.09.2019 05:00:00 14,3 13,0 13,6 16,0 17,9 18,3 4 2 8 4 ENE 1032,0 44 0 0,0
14.09.2019 04:00:00 14,4 13,3 14,0 16,2 18,1 18,3 3 2 6 4 N 1032,1 37 0 0,0
14.09.2019 03:00:00 14,8 13,5 14,0 16,1 18,3 18,3 5 3 6 4 ENE 1032,2 35 0 0,0
14.09.2019 02:00:00 14,3 13,7 13,4 15,9 18,6 18,3 5 3 6 4 NNE 1032,4 33 0 0,0
14.09.2019 01:00:00 14,9 13,8 12,2 16,2 18,9 18,3 3 2 5 3 NNE 1032,3 55 0 0,0
14.09.2019 00:00:00 15,0 14,2 12,1 16,9 19,2 18,3 3 2 7 4 NE 1032,3 53 0 0,0
13.09.2019 23:00:00 15,9 14,2 12,9 17,7 19,5 18,3 4 2 9 5 ENE 1032,3 62 0 0,0
13.09.2019 22:00:00 16,7 14,2 14,3 18,6 19,7 18,3 7 4 9 5 NNW 1032,0 67 0 0,0
13.09.2019 21:00:00 19,1 14,3 15,7 19,7 19,8 18,3 5 3 8 4 N 1031,7 64 0 0,0
13.09.2019 20:00:00 20,0 14,1 17,7 21,1 19,9 18,3 4 2 7 4 NNW 1031,2 71 0 0,0
13.09.2019 19:00:00 21,3 14,1 21,5 22,1 19,8 18,3 5 3 9 5 NW 1031,1 71 5 0,0
13.09.2019 18:00:00 21,6 14,0 23,1 22,7 19,7 18,3 6 4 15 8 NNW 1031,0 56 0 0,0
13.09.2019 17:00:00 21,9 14,3 23,6 23,2 19,4 18,3 12 6 19 10 N 1030,9 71 0 0,0
13.09.2019 16:00:00 22,4 13,7 25,1 24,0 19,0 18,3 6 3 16 9 W 1030,9 53 21 0,0
13.09.2019 15:00:00 22,2 14,3 26,7 23,6 18,6 18,3 6 4 14 8 W 1031,2 55 1 0,0
13.09.2019 14:00:00 21,4 14,1 26,2 23,4 18,2 18,3 6 3 18 10 NW 1031,7 37 13 0,0
13.09.2019 13:00:00 20,7 14,3 24,5 22,4 17,8 18,3 6 4 17 9 WNW 1031,8 63 5 0,0
13.09.2019 12:00:00 20,1 14,1 23,4 22,3 17,3 18,3 6 3 16 9 NW 1032,2 72 18 0,0
13.09.2019 11:00:00 19,5 14,2 25,2 21,7 16,9 18,3 10 5 18 10 W 1032,0 61 60 0,0
13.09.2019 10:00:00 17,9 13,8 22,0 18,8 16,7 18,3 10 5 16 8 WSW 1031,9 64 60 0,0
13.09.2019 09:00:00 14,5 11,8 16,6 15,5 16,7 18,3 3 1 5 3 ENE 1031,9 45 58 0,0
13.09.2019 08:00:00 11,7 11,2 13,0 13,7 16,9 18,3 3 2 6 4 ENE 1032,1 19 10 0,0
13.09.2019 07:00:00 11,3 11,0 10,2 13,6 17,2 18,3 4 2 6 3 E 1031,9 8 0 0,0
13.09.2019 06:00:00 11,2 10,8 9,9 14,0 17,4 18,3 4 2 7 4 ENE 1031,6 4,0 0 0,0
13.09.2019 05:00:00 12,3 12,0 10,7 14,3 17,7 18,3 5 3 6 3 SSE 1031,4 24 0 0,0
13.09.2019 04:00:00 12,6 12,2 10,5 14,7 18,0 18,3 3 2 4 2 ENE 1031,4 19 0 0,0
13.09.2019 03:00:00 13,2 12,7 11,0 15,1 18,3 18,3 3 2 4 2 ESE 1031,3 35 0 0,0
13.09.2019 02:00:00 13,6 12,9 11,6 15,6 18,6 18,4 3 1 5 3 NNE 1031,4 47 0 0,0
13.09.2019 01:00:00 14,0 13,1 11,5 16,2 18,9 18,4 2 1 3 2 E 1031,1 49 0 0,0
13.09.2019 00:00:00 14,7 13,1 12,2 17,0 19,2 18,4 2 1 6 3 S 1031,1 65 0 0,0
12.09.2019 23:00:00 16,9 13,9 13,4 17,7 19,5 18,4 2 1 4 2 SW 1030,9 66 0 0,0
12.09.2019 22:00:00 17,9 14,0 14,1 18,5 19,8 18,4 3 2 8 4 N 1030,7 68 0 0,0
12.09.2019 21:00:00 18,6 13,8 14,8 19,6 20,0 18,4 8 4 12 7 W 1030,4 65 0 0,0
12.09.2019 20:00:00 19,8 13,8 17,5 20,9 20,1 18,4 9 5 13 7 WSW 1029,6 60 19 0,0
12.09.2019 19:00:00 22,1 13,7 20,7 22,2 20,1 18,4 10 5 22 12 W 1029,4 71 45 0,0
12.09.2019 18:00:00 22,2 13,3 22,7 23,5 19,9 18,4 17 9 31 17 W 1029,3 63 27 0,0
12.09.2019 17:00:00 22,9 13,6 24,7 24,5 19,6 18,4 15 8 29 16 WSW 1029,4 53 10 0,0
12.09.2019 16:00:00 23,7 12,9 27,7 25,4 19,0 18,4 18 10 29 16 W 1029,7 71 50 0,0
12.09.2019 15:00:00 23,2 13,0 28,7 25,4 18,4 18,4 15 8 31 17 W 1029,7 61 59 0,0
12.09.2019 14:00:00 22,8 12,7 29,0 24,8 17,8 18,5 14 8 27 15 W 1029,9 59 52 0,0
12.09.2019 13:00:00 22,1 12,2 28,8 23,5 17,2 18,5 16 8 27 15 WSW 1030,1 68 53 0,0
12.09.2019 12:00:00 20,2 11,1 23,8 20,9 16,9 18,5 16 9 27 14 WSW 1030,6 59 19 0,0
12.09.2019 11:00:00 19,1 10,5 21,8 19,0 16,7 18,5 18 10 29 16 WSW 1030,1 55 7 0,0
12.09.2019 10:00:00 18,2 10,3 19,7 17,1 16,6 18,5 14 8 27 15 WSW 1029,9 48 1 0,0
12.09.2019 09:00:00 17,3 9,9 17,9 16,3 16,6 18,5 12 6 19 10 WSW 1029,4 67 14 0,0
12.09.2019 08:00:00 16,4 10,5 16,9 15,2 16,6 18,5 8 4 13 7 W 1029,1 72 4 0,0
12.09.2019 07:00:00 15,9 9,8 14,8 15,0 16,7 18,5 8 4 22 12 WSW 1028,4 54 0 0,0
12.09.2019 06:00:00 16,3 10,2 15,5 15,4 16,8 18,5 13 7 20 11 WSW 1027,8 54 0 0,0
12.09.2019 05:00:00 16,8 10,0 16,2 15,4 16,9 18,5 13 7 23 13 WSW 1027,8 53 0 0,0
12.09.2019 04:00:00 17,3 9,5 16,6 15,5 17,0 18,5 15 8 26 14 WSW 1027,5 54 0 0,0
12.09.2019 03:00:00 17,1 9,5 16,5 15,5 17,1 18,5 14 8 24 13 WSW 1027,5 54 0 0,0
12.09.2019 02:00:00 16,6 9,2 15,7 15,6 17,3 18,6 15 8 23 12 WSW 1027,3 53 0 0,0
12.09.2019 01:00:00 16,5 9,3 15,6 15,9 17,5 18,6 8 4 24 13 W 1027,0 58 0 0,0
12.09.2019 00:00:00 16,7 9,0 16,0 16,2 17,6 18,6 10 5 18 10 WSW 1026,9 66 0 0,0
11.09.2019 23:00:00 16,9 8,6 16,2 16,4 17,8 18,6 10 5 18 10 WSW 1026,7 60 0 0,0
11.09.2019 22:00:00 17,1 8,4 16,2 16,9 18,0 18,6 10 5 14 8 SW 1026,3 63 0 0,0
11.09.2019 21:00:00 17,1 9,1 16,3 17,4 18,2 18,6 11 6 19 10 WSW 1025,8 56 0 0,0
11.09.2019 20:00:00 17,7 8,6 17,0 18,2 18,3 18,6 12 6 17 9 WSW 1024,9 58 0 0,0
11.09.2019 19:00:00 18,8 8,5 18,3 19,2 18,3 18,6 12 6 25 13 W 1024,5 65 0 0,0
11.09.2019 18:00:00 19,8 8,0 19,6 20,4 18,2 18,7 14 7 27 14 WSW 1024,0 58 0 0,0
11.09.2019 17:00:00 20,8 6,9 21,7 21,2 17,9 18,7 10 6 27 15 W 1023,5 49 34 0,0
11.09.2019 16:00:00 22,2 5,4 26,1 22,0 17,4 18,7 11 6 24 13 W 1023,1 53 60 0,0
11.09.2019 15:00:00 21,4 7,1 25,6 22,6 16,8 18,7 11 6 22 12 WSW 1023,5 54 60 0,0
11.09.2019 14:00:00 21,0 7,0 26,9 22,6 16,1 18,7 10 5 24 13 WNW 1023,5 56 60 0,0
11.09.2019 13:00:00 20,4 7,7 26,1 21,8 15,4 18,7 7 4 15 8 W 1023,6 44 60 0,0
11.09.2019 12:00:00 18,2 8,9 24,9 20,2 14,8 18,7 5 3 9 5 NNE 1024,1 42 60 0,0
11.09.2019 11:00:00 16,1 8,8 21,1 17,7 14,4 18,7 4 2 7 4 E 1024,4 31 60 0,0
11.09.2019 10:00:00 12,5 9,0 14,6 14,7 14,2 18,7 4 2 8 4 ESE 1024,7 30 60 0,0
11.09.2019 09:00:00 9,3 6,7 11,3 11,7 14,3 18,7 5 3 8 4 E 1024,4 33 60 0,0
11.09.2019 08:00:00 6,7 5,9 7,4 9,6 14,5 18,7 4 2 6 3 E 1024,3 16 9 0,0
11.09.2019 07:00:00 7,0 6,9 4,6 9,6 14,8 18,8 0 0 6 3 N 1023,7 14 0 0,0
11.09.2019 06:00:00 7,3 7,0 5,5 10,0 15,1 18,8 5 3 6 3 ESE 1022,9 11 0 0,0
11.09.2019 05:00:00 7,2 6,8 5,6 10,3 15,3 18,8 4 2 5 3 ENE 1022,5 12 0 0,0
11.09.2019 04:00:00 7,8 7,3 5,6 10,7 15,6 18,8 3 2 5 3 E 1022,4 16 0 0,0
11.09.2019 03:00:00 8,3 7,8 6,0 11,2 15,9 18,8 4 2 5 3 E 1022,3 19 0 0,0
11.09.2019 02:00:00 8,9 8,2 6,7 11,7 16,3 18,8 4 2 5 3 ESE 1022,2 22 0 0,0
11.09.2019 01:00:00 9,0 8,1 7,2 12,3 16,6 18,8 4 2 5 3 ESE 1021,8 17 0 0,0
11.09.2019 00:00:00 10,3 9,1 7,7 12,9 16,9 18,9 3 2 7 4 NNE 1021,5 35 0 0,0
10.09.2019 23:00:00 11,4 9,5 8,5 13,6 17,3 18,9 4 2 5 3 NE 1021,1 40 0 0,0
10.09.2019 22:00:00 13,4 9,6 9,1 14,4 17,6 18,9 4 2 4 2 E 1020,6 51 0 0,0
10.09.2019 21:00:00 15,1 9,0 10,2 15,5 17,8 18,9 3 2 8 4 E 1019,9 53 0 0,0
10.09.2019 20:00:00 16,5 8,4 11,9 16,7 18,0 18,9 3 2 12 6 NNE 1019,2 34 12 0,0
10.09.2019 19:00:00 17,9 7,4 16,0 17,9 18,0 18,9 8 4 16 8 NNE 1018,5 66 58 0,0
10.09.2019 18:00:00 19,3 5,7 19,9 18,8 17,9 18,9 2 1 8 4 WNW 1017,8 69 60 0,0
10.09.2019 17:00:00 18,9 6,4 20,4 19,3 17,8 19,0 5 3 10 5 NE 1017,6 50 30 0,0
10.09.2019 16:00:00 18,5 6,9 19,4 20,3 17,5 19,0 4 2 7 4 E 1017,7 59 2 0,0
10.09.2019 15:00:00 18,4 5,7 20,1 21,8 16,9 19,0 5 3 12 6 SE 1017,7 59 51 0,0
10.09.2019 14:00:00 18,9 6,0 23,7 21,9 16,3 19,0 9 5 19 11 ESE 1017,5 70 60 0,0
10.09.2019 13:00:00 18,8 8,1 23,5 21,1 15,7 19,0 9 5 20 11 E 1017,4 51 60 0,0
10.09.2019 12:00:00 18,1 9,3 21,9 19,9 15,1 19,0 9 5 18 10 ESE 1017,7 55 60 0,0
10.09.2019 11:00:00 14,7 10,7 19,5 17,3 14,8 19,0 8 5 14 8 E 1017,6 31 60 0,0
10.09.2019 10:00:00 11,4 10,5 14,0 14,1 14,7 19,0 8 5 12 6 E 1017,8 8 24 0,0
10.09.2019 09:00:00 8,9 8,6 10,6 12,3 14,7 19,0 5 3 10 5 E 1018,0 0,2 0 0,0
10.09.2019 08:00:00 8,1 7,9 9,2 11,6 14,8 19,1 6 3 9 5 E 1017,5 0,2 0 0,0
10.09.2019 07:00:00 7,7 7,4 8,3 11,5 14,9 19,1 4 2 8 4 ESE 1017,1 0,1 0 0,0
10.09.2019 06:00:00 7,9 7,7 8,7 11,5 15,1 19,1 6 3 9 5 E 1016,8 0,2 0 0,0
10.09.2019 05:00:00 8,1 7,8 8,6 11,6 15,2 19,1 5 3 9 5 E 1016,9 0,2 0 0,0

tt = temperature
td = dewpoint
tt 5cm = temperature 5cm
tt -5cm = temperature -5cm
tt -20cm = temperature -20cm
tt -100cm = temperature -100cm
ff = wind speed
fx = gusts
dd = wind direction
ppp = reduced air pressure
vv = visibility
sd = sunshine duration
rr = precipitation

Next stations